Tracking 28790 objects as of 19-Apr-2024
HD Live streaming from Space Station
objects crossing your sky now

COSMOS 1805

Track COSMOS 1805 now!
10-day predictions
COSMOS 1805 is classified as:


NORAD ID: 17191
Int'l Code: 1986-097A
Perigee: 498.2 km
Apogee: 506.2 km
Inclination: 82.5 °
Period: 94.5 minutes
Semi major axis: 6873 km
RCS: 9.467 m2 (large)
Launch date: December 10, 1986
Source: Commonwealth of Independent States (former USSR) (CIS)
Launch site: PLESETSK MISSILE AND SPACE COMPLEX (PKMTR)
Your satellite tracking list
Your tracking list is empty




NASA's NSSDC Master Catalog

Two Line Element Set (TLE):
1 17191U 86097A   24109.93112927  .00018447  00000-0  76884-3 0  9999
2 17191  82.4681  80.4593 0005835  90.4439 269.7466 15.23577108 41294
Source of the keplerian elements: AFSPC